METAR Formatted Surface Weather Observation
Issued by NWS

Home | Current Version | Previous Version | Text Only | Print | Product List | Glossary On
Versions: 1 2 3 4 5 6 7 8 9 10 11 12 13 14 15 16 17 18 19 20 21 22 23 24 25 26 27 28 29 30 31 32 33 34 35 36 37 38 39 40 41 42 43 44 45 46 47 48 49 50
376
SAUS44 KMOB 241159
MTR0J4
METAR K0J4 241158Z AUTO 00000KT 9SM BKN003 22/21 A2960 RMK AO2 CIG
001V006 SLP019 60004 70146 T02220206 10222 20217 56021



USA.gov is the U.S. government's official web portal to all federal, state and local government web resources and services.